Погода в Русском Кандызе

Россия / Оренбургская область     54°01′46″N   52°56′03″E
темп.,
°C
ветер,
м/с
пор.,
м/с
влажн.,
%
обл.,
%
осадки,
мм/ч
давл.,
гПа
погр.,
м
5 августа, чт
чт523:00+26с6104892 0.0 1009326
02:00+21зсз6116787 0.1 1011274
05:00+19зсз2585100 0.3 1012174
08:00+20ссз35794 0.0 1011335
11:00+24ссз56550 0.0 1012980
14:00+28ссз553764 0.0 10112078
17:00+28ссз963369 0.0 10111624
20:00+24ссз68390 0.0 10121031
6 августа, пт
пт623:00+18с38600 0.0 1013145
02:00+16с35644 0.0 101483
05:00+15с35693 0.0 101479
08:00+18с47615 0.0 1015301
11:00+24с56370 0.0 10161919
14:00+26ссз55260 0.0 10142333
17:00+27ссз55232 0.0 10142601
20:00+25ссв572826 0.0 1014742
7 августа, сб
сб723:00+17ссв48367 0.0 1016123
02:00+15св33455 0.0 101726
05:00+13св11536 0.0 101710
08:00+17св114217 0.0 1018139
11:00+24с233065 0.0 10181251
14:00+27с552692 0.0 10172022
17:00+26с563110 0.0 10171508
20:00+23ссв56393 0.0 1018779
8 августа, вс
вс823:00+17ссв33585 0.0 101940
02:00+15св225917 0.0 101931
05:00+13всв11615 0.0 102010
08:00+18всв224912 0.0 1020200
11:00+24св33345 0.0 1020922
14:00+29ссв452952 0.0 10191637
17:00+29ссв5628100 0.0 10181810
20:00+27ссв363422 0.0 1019303
9 августа, пн
пн923:00+20св2248100 0.0 102011
02:00+18всв354987 0.0 102066
05:00+16в115198 0.0 102011
08:00+19всв2240100 0.0 1021143
11:00+24всв3333100 0.0 1020658
14:00+28всв3329100 0.0 10191249
17:00+30всв342485 0.0 10181842
20:00+28всв3624100 0.0 1017186